Victoria, TX

7:08 PM CDT on October 14, 2019 (GMT -0500)
Victoria Regional

Weather History for KVCT - August, 2019

Change the Weather History Date:

Thursday, August 29, 2019

  Actual Average Record
Temperature  
Mean Temperature 87 °F 84 °F  
Max Temperature 99 °F 94 °F 106 °F (2011)
Min Temperature 75 °F 73 °F 62 °F (1992)
Degree Days  
Heating Degree Days 0 0  
Month to date heating degree days 0 0  
Since 1 June heating degree days 0 0  
Since 1 July heating degree days 0 0  
Cooling Degree Days 22 18  
Month to date cooling degree days 670 568  
Year to date cooling degree days 2623 2321  
Since 1 June cooling degree days 1855 1662  
Growing Degree Days 37 (Base 50)    
Moisture  
Dew Point 74 °F    
Average Humidity 71    
Maximum Humidity 94    
Minimum Humidity 41    
Precipitation  
Precipitation T in 0.13 in 2.80 in (1960)
Month to date precipitation 1.01 2.59  
Year to date precipitation 15.65 26.61  
Snow  
Snow 0.00 in 0.00 in 0.00 in (2002)
Month to date snowfall 0.0 0.0  
Since 1 June snowfall 0.0 0.0  
Since 1 July snowfall 0.0 0.0  
Snow Depth 0.00 in    
Sea Level Pressure  
Sea Level Pressure 29.99 in    
Wind  
Wind Speed 5 mph ()    
Max Wind Speed 18 mph    
Max Gust Speed 22 mph    
Visibility 9.1 miles    
Events Rain , Thunderstorm    
T = Trace of Precipitation, MM = Missing Value Source: Averaged Metar Reports

Daily Weather History Graph

Daily Weather History Graph

Search for Another Location

Airport or City:

Astronomy

Aug. 29, 2019 Rise Set
Actual Time 7:04 AM CDT 7:52 PM CDT
Civil Twilight 6:39 AM CDT 8:16 PM CDT
Nautical Twilight 6:11 AM CDT 8:45 PM CDT
Astronomical Twilight 5:42 AM CDT 9:14 PM CDT
Moon 6:00 AM CDT (8/29) 7:43 PM CDT (8/29)
Length of Visible Light 13h 37m
Length of Day
12h 48m
Waning Crescent, 1% of the Moon is Illuminated
Aug 29
Waning Crescent
Aug 30
New
Sep 5
First Quarter
Sep 13
Full
Sep 21
Last Quarter

Hourly Weather History & Observations

Time (CDT) Temp. Heat Index Dew Point Humidity Pressure Visibility Wind Dir Wind Speed Gust Speed Precip Events Conditions
12:51 AM 79.0 °F - 75.0 °F 88% 30.02 in 9.0 mi East 3.5 mph - N/A   Clear
1:51 AM 78.1 °F - 75.0 °F 90% 30.01 in 8.0 mi East 3.5 mph - N/A   Clear
2:51 AM 77.0 °F - 73.9 °F 90% 30.00 in 8.0 mi SE 4.6 mph - N/A   Clear
3:51 AM 77.0 °F - 73.9 °F 90% 29.99 in 8.0 mi Calm Calm - N/A   Clear
4:51 AM 77.0 °F - 73.9 °F 90% 29.99 in 8.0 mi Calm Calm - N/A   Clear
5:51 AM 75.9 °F - 73.9 °F 94% 29.99 in 6.0 mi Calm Calm - N/A   Clear
6:51 AM 75.9 °F - 73.9 °F 94% 30.01 in 5.0 mi NNE 3.5 mph - N/A   Partly Cloudy
7:51 AM 75.9 °F - 73.9 °F 94% 30.03 in 4.0 mi NE 3.5 mph - N/A   Clear
8:51 AM 80.1 °F 85.4 °F 75.9 °F 87% 30.04 in 5.0 mi NE 3.5 mph - N/A   Clear
9:51 AM 86.0 °F 96.9 °F 77.0 °F 74% 30.04 in 10.0 mi Variable 3.5 mph - N/A   Mostly Cloudy
10:51 AM 88.0 °F 96.5 °F 73.9 °F 63% 30.04 in 10.0 mi South 5.8 mph - N/A   Mostly Cloudy
10:58 AM 89.1 °F 99.1 °F 75.0 °F 63% 30.04 in 10.0 mi ESE 3.5 mph - N/A   Scattered Clouds
11:51 AM 91.0 °F 99.3 °F 73.0 °F 55% 30.04 in 10.0 mi East 3.5 mph - N/A   Mostly Cloudy
12:51 PM 93.0 °F 100.1 °F 71.1 °F 49% 30.01 in 10.0 mi Calm Calm - N/A   Scattered Clouds
1:51 PM 97.0 °F 103.5 °F 70.0 °F 41% 29.99 in 10.0 mi Variable 6.9 mph - N/A   Scattered Clouds
2:51 PM 97.0 °F 104.8 °F 71.1 °F 43% 29.96 in 10.0 mi SSE 11.5 mph - N/A   Partly Cloudy
3:40 PM 90.0 °F 96.9 °F 72.0 °F 55% 29.95 in 10.0 mi East 15.0 mph - N/A   Mostly Cloudy
3:48 PM 89.6 °F 98.2 °F 73.4 °F 59% 29.95 in 10.0 mi ESE 13.8 mph - N/A Thunderstorm Thunderstorm
3:49 PM 89.1 °F 96.0 °F 72.0 °F 57% 29.95 in 10.0 mi ESE 13.8 mph - N/A Thunderstorm Thunderstorm
3:52 PM 89.1 °F 96.0 °F 72.0 °F 57% 29.96 in 10.0 mi ESE 13.8 mph - 0.00 in Rain , Thunderstorm Thunderstorms and Rain
4:07 PM 86.0 °F 93.8 °F 73.9 °F 67% 29.96 in 10.0 mi South 13.8 mph 21.9 mph 0.00 in Rain , Thunderstorm Thunderstorms and Rain
4:39 PM 84.0 °F 89.6 °F 72.0 °F 67% 29.97 in 10.0 mi SW 11.5 mph - 0.00 in Rain , Thunderstorm Rain
4:51 PM 86.0 °F 91.5 °F 71.1 °F 61% 29.95 in 10.0 mi South 9.2 mph - 0.00 in Rain , Thunderstorm Rain
5:25 PM 93.0 °F 100.7 °F 72.0 °F 50% 29.95 in 10.0 mi South 11.5 mph - 0.00 in   Scattered Clouds
5:51 PM 90.0 °F 99.0 °F 73.9 °F 59% 29.94 in 10.0 mi ESE 11.5 mph - 0.00 in   Scattered Clouds
6:51 PM 89.1 °F 99.1 °F 75.0 °F 63% 29.94 in 10.0 mi SE 16.1 mph - N/A   Clear
7:51 PM 86.0 °F 93.8 °F 73.9 °F 67% 29.94 in 10.0 mi SE 11.5 mph - N/A   Clear
8:51 PM 82.9 °F 90.8 °F 75.9 °F 79% 29.96 in 10.0 mi SE 11.5 mph - N/A   Clear
9:51 PM 82.0 °F 89.4 °F 75.9 °F 82% 29.98 in 10.0 mi SE 9.2 mph - N/A   Clear
10:51 PM 81.0 °F 87.3 °F 75.9 °F 85% 30.00 in 10.0 mi SE 6.9 mph - N/A   Clear
11:51 PM 79.0 °F - 75.9 °F 90% 30.00 in 10.0 mi SE 8.1 mph - N/A   Clear